Location: Alafon
(8.4500°N, 4.2333°E)
Time: 18:35:04
(UTC+00:00)

Vanguard 2 - Pass Details

Date: 12 August 2021
Orbit: 553 x 2937 km, 32.9° (Epoch: 26 September)

Event Time Altitude Azimuth Distance (km) Brightness Sun altitude
Rises 20:50:42 0° 233° (SW) 6,429 12.5 -40.3°
Reaches altitude 10° 20:55:25 10° 232° (SW) 5,153 11.9 -41.4°
Enters shadow 21:05:44 51° 226° (SW) 2,343 9.8 -43.6°
Maximum altitude 21:09:30 82° 146° (SSE) 1,736 - -44.4°
Drops below altitude 10° 21:17:43 10° 59° (ENE) 3,159 - -46.1°
Sets 21:19:57 0° 58° (ENE) 3,881 - -46.6°
